Regional Weather Roundup
Issued by NWS

Home | Current Version | Previous Version | Graphics & Text | Print | Product List | Glossary On
Versions: 1 2 3 4 5 6 7 8 9 10 11 12 13 14 15 16 17 18 19 20 21 22 23 24 25 26 27 28 29 30 31 32 33 34 35 36 37 38 39 40 41 42 43 44 45 46 47 48 49 50
000
ASUS43 KOAX 241002
RWRNE

WEATHER ROUNDUP FOR NEBRASKA
NATIONAL WEATHER SERVICE OMAHA NE
400 AM CST MON NOV 24 2014

NOTES: SATELLITE DATA IS BEING USED TO AUGMENT CLOUD COVER ABOVE
       12000 FEET.
       "FAIR" INDICATES FEW OR NO CLOUDS BELOW 12,000 FEET WITH NO
       SIGNIFICANT WEATHER AND/OR OBSTRUCTIONS TO VISIBILITY.

  * THESE STATIONS DO NOT REPORT WEATHER SUCH AS RAIN...SNOW OR FOG.

NEZ001>004-019>022-054>056-241100-
NEBRASKA PANHANDLE

CITY           SKY/WX    TMP DP  RH WIND       PRES   REMARKS
SCOTTSBLUFF    CLEAR     25  15  66 NW14      29.81S WCI  13
ALLIANCE       CLEAR     28  15  58 NW20      29.74F WCI  15
CHADRON        CLEAR     29  18  63 W18       29.78S WCI  16
KIMBALL        CLEAR     28  15  57 NW20G26   29.79S WCI  15
SIDNEY         CLEAR     27  13  55 NW17      29.79S WCI  14
$$

NEZ057>060-069>072-079>082-241100-
SOUTHWEST NEBRASKA

CITY           SKY/WX    TMP DP  RH WIND       PRES   REMARKS
NORTH PLATTE   CLEAR     30  18  60 NW17G24   29.70S WCI  18
IMPERIAL       CLEAR     30  14  51 W17       29.76S WCI  18
LEXINGTON      CLEAR     30  20  67 NW15      29.68R WCI  19
MCCOOK         CLEAR     34  17  50 W20G29    29.73R WCI  23
$$

NEZ005>010-023>029-035>040-094-241100-
NORTH CENTRAL NEBRASKA

CITY           SKY/WX    TMP DP  RH WIND       PRES   REMARKS
VALENTINE      CLOUDY    23  17  78 NW18G30   29.70R WCI   9
AINSWORTH      PTCLDY    22  17  81 NW24G30   29.68R WCI   6
BROKEN BOW     PTCLDY    32  22  66 NW23      29.64R WCI  19
ORD            CLEAR     26  17  68 NW23G31   29.64R WCI  11
$$

NEZ041-046>049-061>064-073>077-083>087-241100-
SOUTH CENTRAL NEBRASKA

CITY           SKY/WX    TMP DP  RH WIND       PRES   REMARKS
AURORA         PTCLDY    29  21  71 NW20      29.63R WCI  16
HASTINGS       PTCLDY    31  21  66 NW14      29.64R WCI  21
KEARNEY *      CLEAR     32  21  64 W17       29.67R WCI  21
YORK           MOCLDY    28  21  74 NW21G29   29.60F WCI  15
$$

NEZ011>018-030>034-042>045-241100-
NORTHEAST NEBRASKA

CITY           SKY/WX    TMP DP  RH WIND       PRES   REMARKS
NORFOLK        CLOUDY    29  21  72 NW22G31   29.56S WCI  15
BLAIR          CLOUDY    29  18  63 NW24G33   29.54S WCI  15
COLUMBUS *     CLOUDY    30  19  64 NW21G28   29.59S WCI  17
FREMONT        CLOUDY    30  20  66 NW15G24   29.58S WCI  19
TEKAMAH        CLOUDY    29  17  61 NW25G33   29.57R WCI  14
$$

NEZ050>053-065>068-078-088>093-241100-
SOUTHEAST NEBRASKA

CITY           SKY/WX    TMP DP  RH WIND       PRES   REMARKS
LINCOLN        CLOUDY    33  21  61 NW17G25   29.61R WCI  22
OMAHA EPPLEY   CLOUDY    30  19  63 NW18G31   29.56S WCI  18
FALLS CITY     CLOUDY    33  24  69 NW16      29.58R WCI  23
$$

NEZ044-045-051>053-067-241100-
OMAHA AREA

CITY           SKY/WX    TMP DP  RH WIND       PRES   REMARKS
OMAHA EPPLEY   CLOUDY    30  19  63 NW18G31   29.56S WCI  18
BLAIR          CLOUDY    29  18  63 NW24G33   29.54S WCI  15
FREMONT        CLOUDY    30  20  66 NW15G24   29.58S WCI  19
OFFUTT AFB     CLOUDY    30  18  59 NW25G35   29.55S WCI  16
$$



USA.gov is the U.S. government's official web portal to all federal, state and local government web resources and services.